TIANTONG-1 2

Last updated on Fri Dec 19 2025 00:02:53 GMT+0000 (Coordinated Universal Time)

1 46916U 20082A 25352.65006853 -.00000330 00000+0 00000+0 0 9993 2 46916 1.0932 308.5761 0003893 357.3247 140.5625 1.00270255 18843
UTC large
Height (km)
Speed (km/s)
/
Latitude / Longitude
Inclination (degrees)
Orbital Period (minutes)
Azimuth
Elevation
Range (km)
Doppler Factor

Next 0 passes for location: London (51.5072 / 0.1276)

Sorry there are no passes over London.